Regional Weather Roundup
Issued by NWS Green Bay, WI

Home | Current Version | Previous Version | Graphics & Text | Print | Product List | Glossary Off
Versions: 1 2 3 4 5 6 7 8 9 10 11 12 13 14 15 16 17 18 19 20 21 22 23 24 25 26 27 28 29 30 31 32 33 34 35 36 37 38 39 40 41 42 43 44 45 46 47 48 49 50

000
ASUS43 KGRB 230700
RWRGRB

NORTH-CENTRAL AND NORTHEAST WISCONSIN REGIONAL WEATHER ROUNDUP
NATIONAL WEATHER SERVICE GREEN BAY WI
200 AM CDT WED MAY 23 2018

WIZ005-009-010>012-018-019-230800-
NORTH CENTRAL WISCONSIN

CITY           SKY/WX    TMP DP  RH WIND       PRES   REMARKS
IRONWOOD       LGT RAIN  48  47  96 W3        30.09S
MANITOWISH WTR NOT AVBL
ARBOR VITAE    NOT AVBL
EAGLE RIVER    NOT AVBL
LAND O LAKES   NOT AVBL
RHINELANDER    FAIR      53  51  93 CALM      30.11R FOG
PHILLIPS       NOT AVBL
ANTIGO         NOT AVBL
TOMAHAWK       NOT AVBL
MERRILL        NOT AVBL
$$

WIZ013-073-230800-
NORTHEAST WISCONSIN

CITY           SKY/WX    TMP DP  RH WIND       PRES   REMARKS
IRON MOUNTAIN  FAIR      49  43  80 NW3       30.07R
MARINETTE      FAIR      53  52  96 N3        30.06R
$$

WIZ017-030-035>037-045-230800-
CENTRAL WISCONSIN

CITY           SKY/WX    TMP DP  RH WIND       PRES   REMARKS
MEDFORD        NOT AVBL
WAUSAU         FAIR      56  56 100 N3        30.09R
MOSINEE        NOT AVBL
MARSHFIELD     FOG       52  52 100 CALM      30.10S VSB 1/4
WISC RAPIDS    FOG       53  52  96 CALM      30.12S VSB 1/4
STEVENS POINT  NOT AVBL
WAUPACA        NOT AVBL
SHAWANO        NOT AVBL
CLINTONVILLE   NOT AVBL
WAUTOMA        FAIR      54  54 100 CALM      30.12R FOG
$$

WIZ038-039-048-051-230800-
FOX VALLEY

CITY           SKY/WX    TMP DP  RH WIND       PRES   REMARKS
NWS GREEN BAY  FAIR      61  57  87 W8        30.08R
APPLETON       NOT AVBL
OSHKOSH        FAIR      58  56  93 CALM      30.10R
FOND DU LAC    FAIR      53  52  96 SW3       30.11R FOG
$$

WIZ022-050-052-230800-
EAST CENTRAL WISCONSIN

CITY           SKY/WX    TMP DP  RH WIND       PRES   REMARKS
EPHRAIM        NOT AVBL
WASHINGTON ISL NOT AVBL
STURGEON BAY   FAIR      57  54  89 S8        30.07R
MANITOWOC      FAIR      60  57  89 W5        30.09R
SHEBOYGAN      FAIR      57  55  93 W5        30.09S
$$

LMZ563-521-522-541>543-230800-
LAKESHORE

STATION/POSITION TIME  TEMP    WIND        PRES    VSBY  WAVE
                       AIR SEA DIR/SP/G                  HT/PER
                 (UTC) (F)     (DEG/KT/KT) (MB)    (MI)  (FT/S)
SHEBOYGAN LKSHOR 0600   61     270/ 10/ 12 1018.5F
KEWAUNEE LKSHORE 0624   56     290/  3/  4 1017.6
NORTHPORT PIER   0640   49     150/  2/  3 1017.3R
N MID LAKE BUOY  0640   40 37  160/  8/  8 1017.7S
SISTER BAY LKSHO 0557   58     150/  6/  8   N/A
MENOMINEE LKSHOR 0624   59     200/  4/  5 1016.9
$$




USA.gov is the U.S. government's official web portal to all federal, state and local government web resources and services.